Location: B?dargowo
(53.3916°N, 14.4413°E)
Time: 10:01:44
(UTC+00:00)

Cosmos 1709 Rocket - Pass Details

Date: 05 February 2023
Orbit: 947 x 1002 km, 82.9° (Epoch: 19 March)

Event Time Altitude Azimuth Distance (km) Brightness Sun altitude
Rises 18:35:49 0° 348° (NNW) 3,660 7.2 -24.5°
Reaches altitude 10° 18:38:21 10° 346° (NNW) 2,703 6.5 -24.8°
Maximum altitude 18:44:28 71° 264° (W) 1,007 4.1 -25.7°
Drops below altitude 10° 18:50:31 10° 182° (S) 2,666 6.2 -26.6°
Sets 18:53:00 0° 180° (S) 3,606 6.9 -27.0°
